This is the latest recevied weather packets stored in our database for station/object KG7MRB. If no packets are shown the sender has not sent any weather packets the latest 10 day(s).
| Time | Temp. | Humidity | Pressure | Rain* | Wind** | Luminosity | Snow |
|---|---|---|---|---|---|---|---|
| 1777947360 | 24.44° C | 46% | 1026.8 hPa | 0 mm | - | 32 W/m² | - |
| 1777947057 | 24.44° C | 46% | 1026.8 hPa | 0 mm | - | 34 W/m² | - |
| 1777946756 | 24.44° C | 46% | 1026.8 hPa | 0 mm | - | 38 W/m² | - |
| 1777946454 | 24.44° C | 45% | 1026.7 hPa | 0 mm | - | 39 W/m² | - |
| 1777946151 | 25° C | 45% | 1026.8 hPa | 0 mm | - | 37 W/m² | - |
| 1777945848 | 25° C | 45% | 1026.9 hPa | 0 mm | - | 37 W/m² | - |
| 1777945544 | 25° C | 44% | 1026.8 hPa | 0 mm | - | 88 W/m² | - |
| 1777945241 | 25° C | 44% | 1026.8 hPa | 0 mm | - | 42 W/m² | - |
| 1777944938 | 25° C | 44% | 1026.7 hPa | 0 mm | - | 47 W/m² | - |
| 1777944636 | 25° C | 44% | 1026.7 hPa | 0 mm | - | 41 W/m² | - |
| 1777944334 | 25° C | 44% | 1027.1 hPa | 0 mm | - | 42 W/m² | - |
| 1777944031 | 25.56° C | 44% | 1026.8 hPa | 0 mm | - | 43 W/m² | - |
| 1777943726 | 25.56° C | 44% | 1026.9 hPa | 0 mm | - | 45 W/m² | - |
| 1777943424 | 25.56° C | 45% | 1027.1 hPa | 0 mm | - | 52 W/m² | - |
| 1777943119 | 25.56° C | 45% | 1027.1 hPa | 0 mm | - | 60 W/m² | - |
| 1777942816 | 25.56° C | 44% | 1027 hPa | 0 mm | - | 58 W/m² | - |
| 1777942512 | 25.56° C | 44% | 1027.1 hPa | 0 mm | - | 80 W/m² | - |
| 1777942210 | 25.56° C | 44% | 1027 hPa | 0 mm | - | 86 W/m² | - |
| 1777941906 | 26.11° C | 44% | 1027 hPa | 0 mm | - | 260 W/m² | - |
| 1777941603 | 26.11° C | 45% | 1026.9 hPa | 0 mm | - | 245 W/m² | - |
| 1777941300 | 25.56° C | 46% | 1026.9 hPa | 0 mm | - | 225 W/m² | - |
| 1777940997 | 26.11° C | 45% | 1027.1 hPa | 0 mm | - | 212 W/m² | - |
| 1777940692 | 26.11° C | 46% | 1027.1 hPa | 0 mm | - | 60 W/m² | - |
| 1777940391 | 26.11° C | 45% | 1027 hPa | 0 mm | - | 61 W/m² | - |
| 1777940088 | 26.11° C | 45% | 1027.1 hPa | 0 mm | - | 56 W/m² | - |
* Rain latest hour (hover to see other rain measurements)
** Current wind speed in m/s (hover to see current wind gust speed)